Wind_Speed
21 21 21 22 22 21 20 19 18 18 17 16 16 17 16 16 15 14 14 13 12 10 9 9 9 9 9 9 8 8 8 8 7 7 7 7 8 9 9 9 8 7
21 21 20 20 20 20 21 20 20 19 18 17 17 16 16 16 16 16 15 14 13 12 11 11 10 10 10 9 9 9 9 8 7 7 8 8 8 8 8 8 8 8
21 20 19 19 19 19 21 21 20 19 19 18 18 17 17 16 16 16 16 15 15 13 12 12 12 11 11 10 10 9 9 9 8 8 8 8 7 7 8 7 7 7
21 20 19 19 18 19 19 19 19 19 19 18 18 18 18 17 17 16 16 16 16 15 13 13 13 13 12 12 11 11 10 10 9 8 9 9 8 7 7 7 6 6
21 20 19 18 18 18 18 18 18 19 18 18 18 18 18 18 18 17 17 17 17 16 15 14 14 14 14 13 13 12 11 11 10 9 9 10 9 7 6 6 6 6
20 19 19 19 18 18 18 18 18 18 18 18 18 18 19 19 19 18 18 19 19 17 16 15 15 15 15 15 15 14 13 13 12 11 10 11 10 9 7 6 6 7
20 20 20 20 19 19 19 19 19 19 19 19 19 19 19 19 20 20 20 20 20 19 17 16 16 16 17 17 17 16 16 15 13 12 11 11 12 11 9 7 6 7
22 22 21 21 20 20 20 20 20 20 20 20 20 21 21 21 21 21 21 21 21 21 19 18 18 18 19 19 18 19 18 17 15 14 13 13 13 13 11 9 8 7
23 22 22 21 21 20 20 20 20 20 20 20 20 21 22 22 22 22 22 22 23 22 21 20 20 20 20 20 20 20 20 20 18 16 15 14 14 15 14 12 10 9
22 22 22 21 20 20 20 20 19 19 18 18 19 19 20 21 22 23 23 23 24 23 23 22 22 22 22 22 22 22 22 22 21 19 17 16 16 16 16 15 13 12
22 22 22 21 20 20 20 20 19 18 17 17 18 18 18 19 21 23 24 24 24 24 24 24 24 24 24 24 23 23 24 24 23 22 20 18 17 17 18 18 16 15
22 22 22 21 20 20 20 19 18 17 17 17 17 17 17 18 19 21 22 23 24 25 25 26 26 26 26 26 25 25 25 25 25 24 23 21 19 18 19 19 19 18
22 22 22 21 21 21 20 19 17 17 16 16 16 16 16 16 17 19 21 22 24 25 26 26 27 27 27 27 27 26 26 26 26 25 24 23 22 21 20 21 21 21
22 23 23 22 22 22 20 18 17 17 16 16 15 14 14 15 16 18 19 20 21 24 25 26 27 27 27 27 26 26 26 26 26 26 25 25 24 23 23 22 23 24
23 24 24 23 23 22 19 17 17 17 16 15 13 12 13 13 14 15 16 16 17 19 21 21 22 22 22 22 23 23 24 24 24 25 25 25 26 26 25 25 25 25
25 26 26 25 24 22 20 19 19 18 16 14 13 12 12 12 12 12 12 13 14 15 16 16 16 15 16 17 19 20 22 22 23 24 25 26 27 27 27 27 26 26
26 27 27 26 25 24 21 20 20 18 16 15 13 12 12 12 11 10 10 11 11 12 13 14 14 14 15 16 18 20 21 22 23 24 26 27 28 28 29 28 28 27
26 28 28 27 26 25 23 22 21 20 18 17 15 14 14 13 12 12 11 11 10 10 11 11 12 13 14 16 19 20 22 23 24 25 26 27 28 29 29 30 29 29
26 28 29 28 27 26 24 23 22 20 19 19 18 17 17 16 15 14 13 13 12 11 11 11 12 11 11 13 16 18 21 23 25 26 26 27 28 28 29 29 29 29
25 28 29 28 27 26 25 23 22 21 21 21 21 21 20 18 17 16 15 15 15 15 14 14 14 12 12 13 15 17 19 22 24 25 26 26 27 28 29 29 29 29
23 26 27 27 27 27 25 24 23 22 22 22 22 23 22 21 21 19 18 17 18 18 18 17 17 16 15 16 18 21 23 24 25 26 26 25 26 26 28 29 29 29
21 24 26 26 27 27 26 24 23 22 22 23 23 23 23 23 23 22 21 21 21 22 22 21 20 20 20 19 21 25 27 28 29 30 30 29 28 28 28 29 30 29
20 22 24 25 26 25 24 22 22 23 24 24 24 24 25 24 24 24 24 25 26 27 27 26 25 25 25 24 25 28 30 32 33 34 34 34 33 33 33 33 34 33
17 19 22 23 23 22 21 21 22 24 25 25 26 26 26 26 26 27 27 29 30 30 31 31 30 28 27 26 27 28 31 35 36 36 37 37 37 38 38 38 39 40
17 17 18 20 21 21 21 23 24 24 25 25 26 27 28 29 30 31 32 32 33 33 33 32 32 32 30 28 28 29 31 34 36 37 38 38 39 39 39 39 40 41
20 19 19 20 21 21 22 23 24 25 25 26 28 29 31 31 32 34 35 35 35 35 35 34 34 34 33 31 31 32 32 34 37 38 38 38 38 37 37 37 38 40
Wind_Direction
221 219 217 216 218 223 228 230 230 231 231 229 227 226 228 232 237 239 240 246 255 268 284 298 309 313 311 307 302 300 302 303 300 294 291 299 314 320 323 324 324 324
224 224 222 220 220 223 227 232 234 235 236 236 235 233 233 234 238 241 242 245 251 259 271 284 296 306 310 308 302 297 297 300 297 292 288 291 303 315 322 327 330 330
228 228 227 226 226 225 228 233 237 239 239 240 240 240 239 238 239 242 243 245 249 254 261 272 283 294 303 307 304 297 292 293 294 289 284 285 292 306 318 329 337 338
232 233 233 233 233 232 233 237 240 242 243 243 242 242 242 242 242 243 243 245 248 251 256 265 275 283 293 301 303 299 291 288 289 286 280 279 282 292 307 323 336 340
235 237 239 241 241 242 242 243 244 245 246 247 246 244 244 244 243 243 243 245 246 248 252 261 270 277 283 291 297 298 293 286 284 283 278 274 275 278 289 308 325 330
237 239 242 243 244 246 247 248 248 250 250 251 250 248 246 245 245 244 244 245 246 248 250 256 264 271 276 281 287 293 293 286 281 279 274 270 268 269 271 285 304 317
238 240 242 243 244 245 248 249 251 253 254 254 254 252 249 247 245 244 244 245 247 249 249 252 259 266 270 274 278 284 289 287 280 275 272 266 264 263 261 262 280 303
239 242 245 246 246 247 248 250 252 253 255 256 256 254 251 249 247 246 246 245 247 249 248 250 255 261 266 269 271 274 281 285 281 274 269 266 262 261 257 253 261 282
241 244 247 249 249 249 250 251 252 253 255 257 257 256 254 252 249 248 247 247 248 249 249 250 253 257 262 265 266 268 272 278 281 275 269 265 261 260 257 253 254 265
244 246 248 250 250 250 251 251 253 256 260 262 262 260 258 255 252 250 248 248 249 251 251 252 253 255 259 261 262 264 265 270 276 276 271 265 261 259 258 256 255 259
250 250 251 251 250 250 251 253 258 263 266 267 266 265 261 256 254 251 249 249 250 251 252 252 253 255 257 260 261 262 263 265 270 274 272 267 263 260 259 258 258 259
253 254 254 252 250 250 252 257 263 266 267 266 265 265 262 258 254 252 250 248 249 251 252 253 255 256 258 261 262 262 263 265 267 271 273 270 266 263 261 259 259 260
253 255 253 250 247 248 252 259 264 264 263 262 262 263 263 259 255 252 250 247 246 249 251 253 255 257 259 261 263 263 264 265 266 269 271 271 268 265 263 261 260 261
250 251 249 246 245 247 252 257 259 258 258 258 260 260 260 258 256 253 252 249 246 247 250 253 255 257 260 262 263 263 263 263 264 265 267 269 268 266 264 262 261 261
244 245 246 244 243 245 249 251 251 252 253 254 254 254 256 257 256 255 255 253 250 249 252 255 257 259 261 262 262 262 261 260 260 261 262 264 265 265 264 263 262 262
237 240 243 243 241 241 242 243 244 246 247 247 248 249 251 251 252 254 253 250 248 248 251 254 256 257 259 260 259 259 259 258 257 258 258 259 261 263 264 264 265 264
234 237 240 241 239 238 238 239 240 240 239 239 241 242 243 243 244 245 243 241 243 246 249 253 255 255 256 258 260 261 262 262 261 260 259 260 261 262 264 266 267 267
232 234 238 238 237 235 236 237 237 236 235 236 237 237 237 237 237 235 234 234 237 240 245 250 254 256 259 262 264 266 267 268 268 268 267 266 266 266 266 267 268 270
236 234 237 238 236 235 236 238 238 238 238 237 236 236 235 234 234 233 233 233 233 235 240 246 252 258 264 270 273 274 275 274 273 272 272 271 272 272 272 271 272 273
242 240 241 240 238 237 239 241 242 243 243 240 238 237 237 236 235 234 234 235 236 236 238 243 251 259 265 272 278 280 282 281 278 276 276 276 276 276 276 275 274 274
244 245 245 244 240 240 242 244 246 248 246 243 242 241 240 241 241 240 240 241 242 243 244 245 249 255 259 266 274 279 280 280 279 279 280 280 281 280 280 280 277 275
244 245 246 245 243 243 244 246 249 250 248 247 248 247 247 248 248 250 251 251 250 253 254 252 251 252 254 258 267 274 275 276 278 280 281 282 282 283 283 283 282 280
245 245 246 247 247 246 247 249 249 248 249 252 254 255 256 256 255 256 256 257 257 259 261 260 258 257 256 257 261 267 271 274 277 280 283 284 284 284 285 285 285 283
249 248 247 248 249 250 251 251 251 250 252 256 258 259 260 259 257 256 256 257 258 259 262 263 264 264 264 265 267 268 272 275 279 282 284 287 287 287 287 286 285 283
252 252 252 251 252 255 256 256 255 255 257 260 262 264 264 262 259 258 259 260 261 262 263 264 266 269 272 274 276 276 277 279 281 284 286 288 289 287 285 284 283 281
253 253 256 258 259 261 261 258 256 256 259 263 265 266 268 269 269 268 266 266 266 266 265 266 267 269 272 274 276 277 278 279 280 282 284 287 287 285 283 283 281 280
Height
5921 5923 5924 5925 5926 5927 5928 5929 5930 5930 5931 5932 5933 5934 5935 5935 5936 5937 5937 5938 5938 5939 5938 5938 5938 5938 5938 5938 5938 5938 5938 5938 5938 5938 5938 5937 5937 5937 5936 5936 5935 5935
5920 5921 5923 5924 5925 5926 5927 5928 5929 5930 5930 5931 5932 5933 5934 5934 5935 5935 5936 5936 5937 5937 5938 5937 5937 5937 5937 5937 5937 5937 5937 5937 5937 5937 5937 5937 5937 5937 5936 5936 5935 5935
5919 5920 5922 5923 5924 5925 5926 5927 5928 5929 5929 5930 5931 5932 5932 5933 5933 5934 5934 5935 5935 5936 5936 5936 5936 5936 5937 5937 5936 5936 5936 5936 5936 5936 5936 5936 5936 5936 5936 5936 5935 5935
5918 5920 5921 5922 5923 5924 5925 5926 5927 5928 5928 5929 5930 5930 5931 5932 5932 5932 5933 5933 5934 5934 5935 5935 5935 5935 5935 5936 5936 5935 5935 5935 5935 5935 5936 5936 5936 5936 5936 5935 5935 5935
5917 5919 5920 5921 5922 5923 5924 5925 5926 5926 5927 5928 5929 5929 5929 5930 5930 5931 5931 5932 5932 5933 5933 5934 5934 5934 5934 5934 5934 5934 5934 5934 5934 5934 5935 5935 5935 5935 5935 5935 5934 5934
5917 5918 5919 5920 5921 5921 5922 5923 5924 5925 5926 5926 5927 5928 5928 5928 5929 5929 5930 5930 5930 5931 5931 5932 5932 5932 5933 5933 5933 5933 5933 5933 5933 5933 5934 5934 5934 5934 5934 5934 5934 5933
5915 5916 5917 5918 5919 5920 5921 5921 5922 5923 5924 5924 5925 5926 5926 5927 5927 5927 5928 5928 5928 5929 5930 5930 5931 5931 5931 5931 5931 5931 5931 5931 5931 5932 5932 5933 5933 5933 5933 5933 5933 5932
5914 5914 5915 5916 5917 5918 5919 5919 5920 5921 5921 5922 5923 5923 5924 5924 5925 5925 5926 5926 5926 5927 5928 5928 5929 5929 5929 5929 5929 5929 5929 5930 5930 5930 5931 5931 5932 5932 5932 5932 5931 5931
5912 5913 5913 5914 5915 5916 5917 5917 5918 5918 5919 5920 5921 5921 5921 5922 5923 5923 5923 5924 5924 5924 5925 5926 5927 5927 5927 5927 5928 5928 5928 5928 5928 5928 5929 5930 5930 5930 5931 5930 5930 5930
5910 5911 5912 5912 5913 5914 5914 5915 5915 5916 5917 5918 5918 5919 5919 5920 5920 5920 5921 5921 5922 5922 5923 5923 5924 5924 5925 5925 5925 5926 5926 5926 5926 5927 5927 5928 5928 5928 5929 5929 5929 5928
5909 5909 5910 5911 5911 5912 5912 5912 5913 5914 5914 5915 5915 5916 5916 5917 5917 5917 5918 5919 5919 5920 5920 5921 5921 5922 5922 5923 5923 5923 5924 5924 5924 5925 5925 5925 5926 5926 5927 5927 5927 5926
5907 5908 5909 5909 5909 5910 5910 5910 5911 5912 5912 5912 5913 5913 5914 5914 5914 5914 5915 5916 5917 5917 5918 5918 5919 5919 5920 5920 5921 5921 5922 5922 5922 5923 5923 5923 5924 5924 5925 5925 5925 5924
5905 5906 5906 5907 5907 5907 5908 5909 5909 5910 5910 5910 5910 5911 5911 5912 5912 5912 5912 5913 5914 5915 5915 5916 5916 5917 5918 5918 5918 5919 5920 5920 5920 5920 5921 5921 5921 5922 5922 5922 5922 5922
5902 5903 5903 5904 5905 5905 5906 5907 5908 5908 5908 5908 5909 5909 5909 5910 5910 5910 5910 5911 5912 5912 5913 5913 5914 5914 5915 5916 5916 5917 5917 5917 5917 5918 5918 5919 5919 5919 5920 5920 5920 5919
5899 5899 5900 5902 5903 5904 5905 5906 5906 5906 5906 5906 5907 5907 5908 5908 5908 5908 5908 5909 5909 5910 5911 5911 5912 5912 5913 5914 5914 5914 5914 5914 5915 5915 5915 5916 5916 5916 5917 5917 5917 5917
5896 5897 5898 5899 5901 5902 5903 5903 5903 5904 5904 5905 5905 5905 5905 5905 5906 5906 5907 5907 5908 5908 5909 5909 5910 5911 5911 5911 5911 5911 5911 5911 5912 5912 5912 5912 5913 5913 5913 5914 5914 5914
5894 5894 5895 5897 5898 5899 5900 5901 5901 5901 5902 5902 5903 5903 5903 5904 5904 5905 5905 5905 5906 5907 5907 5908 5908 5909 5909 5909 5909 5909 5909 5909 5909 5909 5909 5909 5910 5910 5911 5911 5911 5912
5891 5891 5892 5894 5895 5896 5897 5898 5898 5899 5900 5900 5901 5902 5902 5902 5903 5903 5904 5904 5904 5905 5906 5906 5907 5907 5907 5907 5907 5907 5907 5907 5907 5907 5907 5907 5907 5908 5908 5908 5909 5909
5889 5889 5890 5891 5893 5894 5895 5895 5896 5897 5898 5899 5899 5900 5900 5901 5901 5902 5902 5903 5903 5904 5904 5905 5905 5905 5906 5906 5906 5905 5905 5905 5904 5904 5905 5905 5905 5905 5905 5906 5906 5906
5886 5887 5888 5889 5890 5891 5892 5893 5895 5896 5897 5897 5897 5898 5899 5899 5900 5901 5901 5902 5902 5902 5903 5903 5904 5904 5904 5904 5904 5903 5903 5902 5901 5901 5902 5902 5902 5902 5902 5902 5903 5903
5884 5885 5886 5887 5888 5889 5890 5891 5892 5893 5894 5895 5895 5896 5897 5897 5898 5899 5899 5900 5900 5900 5901 5901 5902 5902 5902 5902 5902 5901 5900 5899 5898 5898 5899 5899 5899 5899 5899 5898 5899 5899
5881 5882 5883 5884 5886 5887 5888 5889 5890 5891 5891 5892 5893 5894 5894 5895 5896 5896 5897 5897 5898 5898 5898 5899 5899 5899 5899 5900 5900 5898 5897 5896 5896 5895 5895 5896 5896 5897 5896 5895 5895 5895
5878 5879 5880 5882 5883 5885 5886 5887 5888 5888 5889 5889 5890 5891 5891 5892 5893 5893 5894 5894 5894 5894 5895 5895 5895 5895 5896 5897 5897 5896 5894 5893 5893 5893 5892 5893 5894 5894 5893 5893 5892 5891
5876 5877 5878 5880 5881 5883 5884 5885 5885 5886 5886 5886 5887 5888 5888 5889 5889 5890 5890 5890 5890 5891 5891 5891 5891 5891 5892 5893 5893 5893 5892 5890 5890 5889 5889 5890 5890 5890 5890 5890 5889 5887
5873 5875 5876 5877 5879 5880 5881 5881 5882 5882 5883 5883 5884 5885 5885 5886 5886 5886 5887 5887 5887 5887 5887 5888 5888 5887 5888 5889 5889 5889 5889 5888 5886 5885 5885 5886 5886 5885 5884 5884 5883 5882
5871 5872 5873 5874 5876 5877 5877 5878 5879 5879 5880 5880 5881 5881 5881 5882 5882 5882 5883 5883 5884 5884 5884 5884 5885 5884 5884 5885 5886 5885 5885 5884 5883 5881 5881 5881 5881 5880 5879 5879 5878 5877